www.pogodaiklimat.ru

Погода и климат >> Архив погоды >> Малайзия >> Labuan


ПОГОДА в Labuan

  • Прогноз погоды в Labuan
  • Монитор погоды в Labuan
  • Климат города

АРХИВ ПОГОДЫ в Labuan

Время (UTC), дата Ветер
(напр.,м/с)
 
Видим.   Явления Облачность Т
(С)
Тd
(С)
f
(%)
Тe
(С)
Тes
(С)
Комфортность P
(гПа)
Po
(гПа)
Тmin
(С)
Tmax
(С)
R
(мм)
R24
(мм)
S
(см)
06 8.08 З 3 15 км мгла 9/1 420 м
[Cu Sc Ac trans Cs]
+30.6 +25.5 74 +45 +53 опасность
перегрева
1006.9 1003.6
09 8.08 З 3 15 км мгла 9/1 420 м
[Cu Sc Ac As Cs]
+29.0 +25.4 81 +43 +44 опасность
перегрева
1006.5 1003.2
12 8.08 З 2 15 км мгла 9/4 400 м
[Cu Sc Ac trans Cs]
+27.8 +25.8 89 +41 +41 опасность
перегрева
1008.2 1004.9 +31.0
15 8.08 ЮЗ 3 20 км в посл. час гроза {дождь} 10/4 300 м
[Cu Sc Ac trans Cs]
+25.7 +24.7 94 +36 +36 очень
душно
1010.2 1006.9
18 8.08 Ю 2 20 км в посл. час дождь {гроза} 10/4 360 м
[Cu Sc Ac trans Cs]
+25.0 +23.7 93 +34 +34 очень
душно
1009.4 1006.0 2
21 8.08 Ю 2 20 км 9/3 360 м
[Cu Sc Ac trans Cs]
+25.7 +23.4 87 +35 +35 очень
душно
1008.8 1005.4
00 9.08 ЮЗ 2 28 км 9/1 420 м
[Cu Sc Ac trans Cs]
+27.0 +24.1 84 +37 +40 очень
душно
1010.4 1007.0 +24.6 2
03 9.08 ЮЗ 3 28 км 9/1 420 м
[Cu Sc Ac trans Cs]
+29.7 +23.5 69 +40 +49 очень
душно
1010.5 1007.1
06 9.08 ЮЗ 3 28 км 9/1 420 м
[Cu Sc Ac trans Cs]
+31.3 +24.3 66 +43 +51 опасность
перегрева
1008.2 1004.9
09 9.08 З 1 28 км 10/1 450 м
[Cu Sc As op Cs]
+28.9 +25.2 80 +42 +43 опасность
перегрева
1008.5 1005.2
12 9.08 З 1 20 км 9/1 400 м
[Cu Sc Ac trans Cs]
+27.4 +25.4 89 +40 +40 очень
душно
1010.0 1006.7 +32.0
15 9.08 З 1 20 км 9/3 360 м
[Cu Sc Ac trans Cs]
+26.6 +24.8 90 +38 +38 очень
душно
1011.6 1008.3
18 9.08 Ю 1 20 км 9/1 360 м
[Cu Sc Ac trans Cs]
+26.8 +25.3 92 +39 +39 очень
душно
1010.3 1007.0
21 9.08 штиль 0 20 км 9/1 360 м
[Cu Sc Ac trans Cs]
+25.4 +24.6 95 +36 +36 очень
душно
1009.8 1006.5
00 10.08 Ю 2 28 км 9/1 360 м
[Cu Sc Ac As Cs]
+27.2 +25.7 92 +40 +43 очень
душно
1011.8 1008.5 +24.9
03 10.08 ЮВ 2 28 км 9/1 400 м
[Cu Sc Ac trans Cs]
+30.0 +26.1 80 +45 +56 опасность
перегрева
1010.9 1007.6
06 10.08 ЮЗ 2 28 км 9/1 400 м
[Cu Sc Ac trans Cs]
+31.0 +24.8 70 +44 +54 опасность
перегрева
1008.2 1004.9
09 10.08 З 2 28 км 9/1 420 м
[Cu Sc Ac trans Cs]
+30.1 +25.8 78 +45 +46 опасность
перегрева
1007.9 1004.6
12 10.08 З 1 20 км 9/1 420 м
[Cu Sc Ac trans Cs]
+27.6 +25.2 87 +40 +40 очень
душно
1009.9 1006.6 +31.7
15 10.08 штиль 0 20 км 9/1 420 м
[Cu Sc Ac As Cs]
+27.0 +25.3 90 +39 +39 очень
душно
1011.3 1008.0
18 10.08 штиль 0 20 км 9/1 420 м
[Cu Sc Ac As Cs]
+26.5 +25.4 94 +39 +39 очень
душно
1010.0 1006.7 2
21 10.08 штиль 0 20 км 9/1 420 м
[Cu Sc Ac lent Cs]
+26.2 +25.3 95 +38 +38 очень
душно
1009.2 1005.9
00 11.08 штиль 0 15 км мгла 9/1 420 м
[Cu Sc Ac lent Ci sp]
+28.2 +26.4 90 +43 +46 опасность
перегрева
1009.8 1006.5 +25.5 2
03 11.08 Ю 2 15 км мгла 9/3 420 м
[Cu Sc Ac lent Ci sp]
+30.7 +26.4 78 +47 +55 опасность
перегрева
1009.2 1005.9
06 11.08 З 3 15 км мгла 9/1 420 м
[Cu Sc Ac lent Ci sp]
+31.5 +26.5 75 +48 +55 опасность
перегрева
1007.3 1004.0
09 11.08 З 3 15 км мгла 9/1 420 м
[Cu Sc Ac lent Ci sp]
+30.3 +26.7 81 +47 +48 опасность
перегрева
1006.7 1003.4
12 11.08 З 1 20 км 9/1 420 м
[Cu Sc Ac lent Ci sp]
+27.8 +25.9 89 +41 +41 опасность
перегрева
1008.2 1004.9 +32.0
15 11.08 штиль 0 20 км 9/3 360 м
[Cu Sc Ac lent Ci sp]
+27.0 +25.9 94 +40 +40 очень
душно
1009.7 1006.4
18 11.08 ЮЗ 1 20 км 9/3 360 м
[Cu Sc Ac lent Ci sp]
+27.0 +25.9 94 +40 +40 очень
душно
1008.4 1005.1
21 11.08 ЮЗ 1 20 км 9/3 360 м
[Cu Sc Ac lent Ci sp]
+26.8 +25.5 93 +39 +39 очень
душно
1008.2 1004.9
00 12.08 Ю 2 28 км 9/1 400 м
[Cu Sc Ac trans Cs]
+27.8 +26.0 90 +42 +44 опасность
перегрева
1009.2 1005.9 +26.6
03 12.08 ЮЗ 3 20 км мгла 9/1 420 м
[Cu Sc Ac lent Ci sp]
+30.8 +26.8 79 +48 +56 опасность
перегрева
1009.1 1005.8
06 12.08 ЮЗ 2 20 км мгла 9/1 450 м
[Cu Sc Ac lent Ci sp]
+31.6 +27.5 79 +51 +60 опасность
перегрева
1007.1 1003.8
09 12.08 З 4 20 км мгла 9/1 450 м
[Cu Sc Ac lent Ci sp]
+31.0 +26.9 79 +48 +49 опасность
перегрева
1006.3 1003.0
12 12.08 З 1 15 км мгла 9/1 420 м
[Cu Sc Ac lent Ci sp]
+28.3 +26.4 89 +43 +43 опасность
перегрева
1008.1 1004.8 +32.5
15 12.08 З 1 15 км мгла 9/1 420 м
[Cu Sc Ac lent Ci sp]
+27.5 +26.4 94 +42 +42 опасность
перегрева
1009.7 1006.4
18 12.08 штиль 0 15 км мгла 9/1 420 м
[Cu Sc Ac lent Cs]
+27.3 +26.7 97 +42 +42 опасность
перегрева
1009.0 1005.7
21 12.08 штиль 0 15 км мгла 9/3 400 м
[Cu Sc Ac lent Ci sp]
+27.3 +26.7 97 +42 +42 опасность
перегрева
1008.5 1005.2
00 13.08 Ю 2 20 км мгла 9/3 360 м
[Cu Sc Ac lent Ci sp]
+28.4 +26.7 91 +44 +46 опасность
перегрева
1009.3 1006.0 +27.0
03 13.08 ЮЗ 3 20 км мгла 9/1 360 м
[Cu Sc Ac lent Ci sp]
+30.5 +26.8 81 +48 +56 опасность
перегрева
1009.9 1006.6
06 13.08 З 2 15 км мгла 9/1 360 м
[Cu Sc Ac lent Ci sp]
+32.2 +27.8 78 +52 +61 опасность
перегрева
1008.5 1005.2
09 13.08 З 3 15 км мгла 9/1 360 м
[Cu Sc Ac lent Ci sp]
+30.6 +27.1 82 +48 +50 опасность
перегрева
1007.6 1004.3
12 13.08 штиль 0 20 км зарница 9/3 400 м
[Cb cap Ac trans Cs]
+28.3 +27.1 93 +45 +45 опасность
перегрева
1009.1 1005.8 +32.3
15 13.08 штиль 0 15 км 9/1 420 м
[Cu Sc Ac lent Ci sp]
+27.6 +26.1 92 +42 +42 опасность
перегрева
1010.1 1006.8
18 13.08 штиль 0 15 км 9/1 360 м
[Cu Sc Ac As Cs]
+26.4 +25.2 93 +38 +38 очень
душно
1008.7 1005.4
21 13.08 штиль 0 20 км 9/1 360 м
[Cu Sc Ac trans Cs]
+26.4 +25.0 92 +38 +38 очень
душно
1008.7 1005.4
00 14.08 штиль 0 15 км мгла 10/1 420 м
[Cu Sc Ac lent Cs]
+27.3 +26.2 94 +41 +44 опасность
перегрева
1009.7 1006.4 +25.6
03 14.08 Ю 2 10 км мгла 9/1 420 м
[Cu Sc Ac trans Cs]
+30.7 +26.2 77 +46 +57 опасность
перегрева
1009.1 1005.8
06 14.08 ЮЗ 2 10 км мгла 9/1 450 м
[Cu hum Ac lent Ci sp]
+32.4 +25.5 67 +47 +56 опасность
перегрева
1007.8 1004.5
09 14.08 З 3 10 км мгла 9/1 450 м
[Cu hum Ac lent Cs]
+30.7 +26.7 79 +47 +48 опасность
перегрева
1006.6 1003.3
12 14.08 штиль 0 10 км мгла 9/1 420 м
[Cu Sc Ac lent Ci sp]
+28.8 +27.2 91 +46 +46 опасность
перегрева
1008.3 1005.0 +32.6
15 14.08 штиль 0 8000 м мгла 9/1 360 м
[Cu Sc Ac lent Ci sp]
+27.9 +26.9 94 +44 +44 опасность
перегрева
1009.4 1006.1
18 14.08 штиль 0 8000 м мгла 9/1 400 м
[Cu Sc Ac trans Ci sp]
+27.2 +26.4 95 +41 +41 опасность
перегрева
1009.2 1005.9
21 14.08 штиль 0 7000 м мгла 9/1 400 м
[Cu Sc Ac trans Ci sp]
+26.2 +25.7 97 +39 +39 очень
душно
1008.9 1005.6
00 15.08 В 1 8000 м мгла 9/4 420 м
[Cu Sc Ac lent Ci sp]
+28.4 +27.0 92 +45 +46 опасность
перегрева
1009.6 1006.3 +25.7
03 15.08 ЮЗ 2 8000 м мгла 9/1 420 м
[Cu Sc Ac lent Ci sp]
+30.9 +26.3 77 +47 +58 опасность
перегрева
1009.6 1006.3

 

Местоположение метеостанции Labuan (Малайзия): широта 5.30 долгота 115.25 высота над уровнем моря 30 м.

В архиве по умолчанию представлена погода в Labuan за последнюю неделю. Архивные данные за месяц целиком и за предыдущие месяцы, начиная с января 2011 года, Вы можете получить, выбрав интересующий диапазон дат из раскрывающегося списка и нажав кнопку "Ввод!".


*Определитесь, кто Вы:
робот инопланетянин человек

Внимание! Время в таблицах - всемирное. Для получения местного времени необходимо прибавить поправку, которая в Labuan равна 8 ч.

Смотрите также архив погоды в соседних городах и на ближайших метеорологических станциях:

Погода в Brunei Airport (Бруней) (54 км)
Погода в Kota Kinabalu (Малайзия) (113 км)
Погода в Miri (Малайзия) (177 км)
Погода в Longbawan (Индонезия) (181 км)
Погода в Tawau (Малайзия) (313 км)
Погода в Sandakan (Малайзия) (318 км)
Погода в Tarakan (Индонезия) (337 км)
Погода в Bintulu (Малайзия) (339 км)
Погода в Tanjung Selor (Индонезия) (357 км)
Погода в Tanjung Redep (Индонезия) (430 км)

Пояснения к столбцам:

Ветер - указаны скорость ветра в м/с - средняя за 10 мин, порывы в срок и между сроками (в фигурных скобках) и направление, откуда дует ветер: С - северный, СВ - северо-восточный, В - восточный, ЮВ - юго-восточный, Ю - южный, ЮЗ - юго-западный, З - западный, СЗ - северо-западный.
Видимость - горизонтальная дальность видимости в метрах или километрах. При видимости от 1 до 10 км при отсутствии осадков обычно наблюдается дымка, при ухудшении видимости до 1 км и менее - туман. В сухую погоду видимость может ухудшаться дымом, пылью или мглою.
Явления - указаны атмосферные явления, наблюдавшиеся в срок или в последний час перед сроком; фигурными скобками обозначены явления, наблюдавшиеся между сроками (за 1-3 часа до срока); квадратными скобками обозначены град или гололедные отложения с указанием их диаметра в мм.
Облачность - указаны через наклонную черту общая и нижняя облачность в баллах и высота нижней границы облаков в метрах; квадратными скобками обозначены формы облаков: Ci - перистые, Cs - перисто-слоистые, Cc - перисто-кучевые, Ac - высококучевые, As - высокослоистые, Sc - слоисто-кучевые, Ns - слоисто-дождевые, Cu - кучевые, Cb - кучево-дождевые. Подробнее классификацию облаков см. в Атласе облаков (PDF).
T - Температура воздуха - температура, измеренная на высоте 2 м над землей.
Td - Температура точки росы - температура, при понижении до которой содержащийся в воздухе водяной пар достигнет насыщения.
f - Относительная влажность воздуха - влажноcть воздуха, измеренная на высоте 2 м над землей.
Te - Эффективная температура - температура, которую ощущает одетый по сезону человек в тени. Характеристика душности погоды. При расчете учитывается влияние влажности воздуха и скорости ветра на теплоощущения человека.
Tes - Эффективная температура на солнце - температура, которую ощущает человек, с поправкой на солнечный нагрев. Характеристика знойности погоды. Зависит от высоты солнца над горизонтом, облачности и скорости ветра. Ночью, в пасмурную погоду, а также при ветре 12 м/с и более поправка равна нулю.
P - Атмосферное давление - приведенное к уровню моря атмосферное давление.
Po - Атмосферное давление - измеренное на уровне метеостанции атмосферное давление.
Tmin - Минимальная температура - минимум температуры воздуха на высоте 2 м над землей.
Tmax - Максимальная температура - максимум температуры воздуха на высоте 2 м над землей.
R - Количество осадков - Количество выпавших осадков за период времени, мм. При наведении курсора мыши на число - период времени, за который выпало указанное количество осадков.
R24 - Количество осадков - Количество выпавших осадков за 24 часа, мм.
S - Снежный покров - Высота снежного покрова, см. При наведении курсора мыши на число - состояние снежного покрова и степень покрытия местности в баллах.